DECAYED

CZ-6A DEB, 60642 (Decayed)

Orbit data source: Space-Track

CZ-6A DEB, 60642 was space debris in LEO originally from a launch on Tue, 06 Aug 2024 UTC launched from the Taiyaun Space Center, China (TSC). Debris objects in space refer to the collection of defunct objects orbiting the Earth. Examples of debris include non-operational satellites, rocket bodies, and fragments generated from explosions, collisions, or faulty payload assembly.

Not visible in the next 10 days
Identifier
60642, 2024-140AT
Orbit
Decayed
Country
Flag of CNCN / PRC
Related business
Manufacturer
SAST
Mission
Decayed spacecraft
Bus & Motor
Unknown
Mass
Unknown
Launch date (UTC)
2024-08-06 (1 year ago)
Launch vehicle
Unknown
Launch site
Taiyaun Space Center, China (TSC)
Object type
Payload
Rocket body
Debris
Shape & HBR
Unknown shape, 0.2 m
Radar Cross Section
Medium (>0.1 m² and <1 m²)

Expand to show TLE details & history
Last TLE update: 9 months ago

TLE from 9 months ago
0 CZ-6A DEB
1 60642U 24140AT  25093.22956247  .07324497 -10184-5  26262-2 0  9991
2 60642  89.2986 331.0354 0031396 260.2837  99.4918 16.23582202 36045
Epoch: 2025-04-03T05:30Z
TLE epoch observation values (Epoch: 2025-04-03T05:30:34.197Z)
Latitude
-0.00002°
Longitude
56.58752°
Altitude
216.658 km
Speed
7.774 km/s
True Right ascension
22h 04m 08s
True Declination
0° 00' 00"
Sunlit
Object was in daylight at epoch
Visualization orbit readout
Latitude
Unknown
Longitude
Unknown
Altitude
Unknown
Speed
Unknown
Apparent Right ascension
Unknown
Apparent Declination
Unknown
Sunlit
N/A
Visualization observer readout
Local Sidereal Time
08:51:03
Azimuth
Unknown
Elevation
Unknown
Doppler factor
Unknown
Orbital elements
Apogee altitude
227.181 km
Perigee altitude
185.835 km
Semi-major axis
6,584.645 km
Eccentricity
0.00314
Inclination
89.2986°
RAAN
331.0354°
Arg. of periapsis
260.2837°
True anomaly
99.84641°
Mean anomaly
99.4918°
Eccentric anomaly
99.66913°
Mean motion
4.06204 °/min
Orbital period
88.63 mins
BSTAR
0.0026262
Loading maneuver chart data...
Computing Atmospheric mass density...
Loading historical data...
Loading historical data...
Loading historical data...
Loading historical data...
Loading historical data...
Loading historical data...
Loading historical data...

Documentation

Showing up to 5 results
|